Location: Kumla
(59.1265°N, 15.1401°E)
Time: 23:51:45
(UTC+01:00)

Vanguard 1 - Pass Details

Date: 09 December 2023
Orbit: 653 x 3825 km, 34.3° (Epoch: 04 March)

Event Time Altitude Azimuth Distance (km) Brightness Sun altitude
Rises 16:55:53 0° 212° (SSW) 5,417 14.9 -12.6°
Reaches altitude 10° 16:59:56 10° 200° (SSW) 4,872 14.2 -13.1°
Maximum altitude 17:10:47 25° 153° (SSE) 4,754 13.4 -14.4°
Drops below altitude 10° 17:25:30 10° 109° (ESE) 6,750 13.8 -16.2°
Enters shadow 17:28:11 - 105° (ESE) 7,198 14.0 -16.5°
